Location: Unspecified
(0.0000°N, 0.0000°E)
Time: 08:42:41
(UTC+02:00)

Orbus 21S - Visible Passes

Search period start: 29 September 2016 00:00
Search period end: 09 October 2016 00:00
Orbit: 313 x 33100 km, 24.1° (Epoch: 28 September)

Date Brightness Start Highest point End Pass type
(mag) Time Alt. Az. Time Alt. Az. Time Alt. Az.
29 Sep 6.8 12:02:13 10° SW 20:35:18 49° NNW 21:02:51 12° NE visible
30 Sep 5.9 07:10:44 10° SSW 07:17:53 24° SSE 15:54:09 10° ENE visible
01 Oct 6.5 12:33:57 10° WSW 14:30:03 76° WSW 21:31:43 20° NE visible
03 Oct 6.3 13:06:12 10° WSW 14:53:36 66° WSW 22:00:30 29° NE visible
05 Oct 6.1 13:39:12 10° WSW 15:21:23 55° W 22:29:13 37° NNE visible
07 Oct 6.1 14:13:23 10° WSW 15:50:26 45° W 22:57:53 39° N visible
